This is the latest recevied weather packets stored in our database for station/object N4AN. If no packets are shown the sender has not sent any weather packets the latest 10 day(s).
| Time | Temp. | Humidity | Pressure | Rain* | Wind** | Luminosity | Snow |
|---|---|---|---|---|---|---|---|
| 1788102645 | 30.56° C | 79% | 1012.1 hPa | 0 mm | - | - | - |
| 1788102345 | 30.56° C | 77% | 1012.2 hPa | 0 mm | - | - | - |
| 1788102043 | 30.56° C | 77% | 1012.1 hPa | 0 mm | - | - | - |
| 1788101743 | 31.11° C | 77% | 1012.1 hPa | 0 mm | - | - | - |
| 1788101146 | 31.11° C | 77% | 1012.2 hPa | 0 mm | - | - | - |
| 1788100842 | 31.11° C | 77% | 1012.2 hPa | 0 mm | - | - | - |
| 1788100542 | 30.56° C | 76% | 1012.2 hPa | 0 mm | - | - | - |
| 1788100242 | 31.67° C | 75% | 1012.3 hPa | 0 mm | - | - | - |
| 1788099941 | 31.67° C | 75% | 1012.3 hPa | 0 mm | - | - | - |
| 1788099639 | 31.67° C | 74% | 1012.2 hPa | 0 mm | - | - | - |
| 1788099338 | 32.22° C | 75% | 1012.1 hPa | 0 mm | - | - | - |
| 1788099038 | 32.22° C | 74% | 1012 hPa | 0 mm | - | - | - |
| 1788098738 | 32.22° C | 74% | 1012 hPa | 0 mm | - | - | - |
| 1788098437 | 32.78° C | 73% | 1011.9 hPa | 0 mm | - | - | - |
| 1788098136 | 32.22° C | 73% | 1011.9 hPa | 0 mm | - | - | - |
| 1788097835 | 32.22° C | 73% | 1011.9 hPa | 0 mm | - | - | - |
| 1788097233 | 32.22° C | 74% | 1011.8 hPa | 0 mm | - | - | - |
| 1788096933 | 32.22° C | 74% | 1011.8 hPa | 0 mm | - | - | - |
| 1788096633 | 32.22° C | 74% | 1011.7 hPa | 0 mm | - | - | - |
| 1788096332 | 32.22° C | 73% | 1011.7 hPa | 0 mm | - | - | - |
| 1788096032 | 32.22° C | 74% | 1011.5 hPa | 0 mm | - | - | - |
| 1788095705 | 32.22° C | 74% | 1011.5 hPa | 0 mm | - | - | - |
| 1788095404 | 31.67° C | 74% | 1011.5 hPa | 0 mm | - | - | - |
| 1788095103 | 31.67° C | 75% | 1011.5 hPa | 0 mm | - | - | - |
| 1788094795 | 31.67° C | 75% | 1011.5 hPa | 0 mm | - | - | - |
* Rain latest hour (hover to see other rain measurements)
** Current wind speed in m/s (hover to see current wind gust speed)